Find Kosmos-2282

NORAD ID: 23168 Int'l Des: 1994-038 Owner: PVO Country: RU operational
HEOCIRCULARGSO

Aktuelle Ansicht

3D-Globus wird geladen...

Über Kosmos-2282

Beschreibung wird geladen...

Nächste Überflüge

Passes for default location (London). Set your location on the main map for personalized predictions.

Höhenverlauf

Loading altitude history...

Zweizeiliger Elementsatz

1 23168U 94038A 26149.75186882 .00000053 00000-0 00000-0 0 9999
2 23168 13.8723 352.8454 0005868 122.0479 227.8815 1.00271791116817
Epoch: 29. Mai 2026 • Age: 16 hours

Aktueller Status

Höhe 35798.6 km
Geschwindigkeit 3.07 km/s
Subsatellitenpunkt -11.49°S, 175.9°W
Startdatum 6. Juli 1994
Alter 31.8 years
Typ other

Technische Details

Klassifizierung Payload
Masse 2200.00 kg
Trockenmasse 2100.00 kg
Gesamtmasse 2200.00 kg
Länge 5.00 m
Durchmesser 2.00 m
Spannweite 10.00 m
Form Step Cyl + 2 Pan
Hersteller NPOL/KOMET
Bus-Typ Prognoz
Phasenstatus In Orbit
Besitzer/Staat PVO/RU

Most Searched